QPF
0.06 0.07 0.06 0.05 0.06 0.06 0.07 0.08 0.12 0.13 0.12 0.08 0.06 0.04 0.04 0.04 0.04 0.02 0.01 0.01 0.00 0.00 0.01 0.00 0.00 0.00 0.00 0.02 0.05 0.02 0.01 0.01 0.02 0.02 0.02 0.02 0.03 0.04
0.06 0.07 0.07 0.06 0.06 0.05 0.07 0.07 0.08 0.11 0.11 0.08 0.05 0.03 0.04 0.04 0.05 0.02 0.02 0.01 0.00 0.00 0.00 0.00 0.00 0.00 0.00 0.02 0.05 0.05 0.02 0.02 0.02 0.02 0.01 0.01 0.02 0.03
0.05 0.06 0.07 0.08 0.08 0.06 0.05 0.06 0.06 0.09 0.11 0.08 0.06 0.05 0.06 0.07 0.07 0.06 0.03 0.02 0.00 0.00 0.00 0.01 0.01 0.01 0.01 0.01 0.04 0.04 0.03 0.02 0.02 0.02 0.02 0.01 0.01 0.02
0.04 0.05 0.05 0.07 0.09 0.08 0.06 0.05 0.06 0.07 0.08 0.09 0.08 0.07 0.06 0.06 0.06 0.05 0.03 0.02 0.01 0.01 0.01 0.00 0.00 0.01 0.01 0.01 0.03 0.03 0.02 0.02 0.02 0.02 0.02 0.02 0.01 0.01
0.03 0.04 0.04 0.07 0.08 0.07 0.08 0.06 0.05 0.04 0.06 0.07 0.06 0.07 0.05 0.05 0.05 0.05 0.04 0.05 0.02 0.02 0.01 0.01 0.00 0.00 0.01 0.01 0.03 0.04 0.03 0.03 0.03 0.02 0.02 0.01 0.01 0.01
0.03 0.03 0.05 0.07 0.08 0.09 0.07 0.07 0.07 0.07 0.07 0.08 0.07 0.06 0.06 0.05 0.07 0.07 0.06 0.05 0.04 0.03 0.02 0.03 0.02 0.01 0.01 0.01 0.02 0.04 0.03 0.03 0.02 0.02 0.01 0.01 0.01 0.01
0.06 0.05 0.05 0.06 0.07 0.06 0.05 0.05 0.06 0.07 0.07 0.07 0.08 0.08 0.06 0.06 0.06 0.06 0.06 0.06 0.05 0.04 0.04 0.02 0.02 0.02 0.02 0.02 0.02 0.03 0.04 0.03 0.02 0.01 0.01 0.01 0.02 0.02
0.09 0.08 0.07 0.06 0.05 0.04 0.03 0.03 0.04 0.06 0.07 0.07 0.07 0.08 0.07 0.06 0.06 0.07 0.07 0.06 0.05 0.04 0.05 0.03 0.03 0.02 0.01 0.02 0.02 0.02 0.03 0.02 0.02 0.01 0.01 0.00 0.01 0.01
0.09 0.09 0.08 0.05 0.05 0.04 0.04 0.03 0.03 0.03 0.03 0.05 0.06 0.06 0.06 0.06 0.07 0.08 0.08 0.06 0.05 0.04 0.04 0.03 0.03 0.03 0.02 0.02 0.04 0.03 0.03 0.02 0.01 0.01 0.01 0.00 0.00 0.00
0.09 0.09 0.08 0.07 0.05 0.05 0.05 0.06 0.05 0.03 0.03 0.03 0.03 0.04 0.05 0.06 0.06 0.05 0.06 0.07 0.07 0.05 0.06 0.06 0.03 0.03 0.02 0.02 0.03 0.03 0.03 0.03 0.02 0.01 0.01 0.01 0.00 0.00
0.09 0.08 0.08 0.07 0.04 0.04 0.06 0.06 0.05 0.04 0.02 0.02 0.02 0.02 0.03 0.04 0.05 0.05 0.06 0.06 0.05 0.04 0.04 0.04 0.04 0.05 0.04 0.03 0.02 0.02 0.03 0.03 0.03 0.02 0.01 0.01 0.01 0.01
0.07 0.07 0.05 0.04 0.03 0.03 0.05 0.05 0.03 0.03 0.03 0.04 0.03 0.02 0.01 0.02 0.03 0.04 0.05 0.06 0.06 0.05 0.03 0.03 0.03 0.03 0.05 0.03 0.02 0.01 0.02 0.03 0.04 0.04 0.03 0.02 0.01 0.02
0.04 0.04 0.03 0.02 0.01 0.01 0.03 0.05 0.03 0.04 0.05 0.05 0.05 0.05 0.04 0.04 0.03 0.03 0.04 0.05 0.06 0.06 0.05 0.05 0.03 0.03 0.04 0.04 0.04 0.03 0.03 0.03 0.04 0.06 0.05 0.03 0.03 0.02
0.05 0.04 0.04 0.02 0.01 0.01 0.01 0.02 0.02 0.02 0.03 0.04 0.05 0.05 0.06 0.07 0.06 0.05 0.05 0.05 0.06 0.05 0.05 0.05 0.05 0.05 0.06 0.06 0.06 0.06 0.06 0.05 0.05 0.06 0.07 0.06 0.04 0.03
0.05 0.05 0.04 0.03 0.02 0.02 0.02 0.02 0.02 0.02 0.02 0.03 0.04 0.04 0.04 0.06 0.08 0.09 0.08 0.07 0.06 0.04 0.03 0.05 0.04 0.04 0.05 0.05 0.05 0.06 0.07 0.07 0.07 0.08 0.11 0.10 0.07 0.04
0.03 0.04 0.03 0.03 0.02 0.02 0.03 0.02 0.02 0.01 0.01 0.02 0.04 0.04 0.06 0.07 0.10 0.10 0.09 0.09 0.08 0.06 0.06 0.05 0.04 0.04 0.04 0.04 0.04 0.04 0.05 0.05 0.06 0.07 0.10 0.12 0.10 0.07
0.04 0.04 0.04 0.04 0.03 0.03 0.03 0.03 0.02 0.02 0.02 0.03 0.03 0.04 0.05 0.06 0.09 0.10 0.11 0.12 0.10 0.08 0.07 0.07 0.06 0.06 0.05 0.05 0.04 0.03 0.04 0.04 0.05 0.07 0.10 0.10 0.09 0.08
0.04 0.05 0.05 0.04 0.03 0.02 0.01 0.01 0.01 0.02 0.02 0.03 0.04 0.04 0.04 0.04 0.06 0.07 0.08 0.09 0.08 0.07 0.07 0.07 0.07 0.07 0.07 0.05 0.04 0.04 0.05 0.05 0.06 0.08 0.10 0.10 0.09 0.08
0.02 0.03 0.04 0.04 0.03 0.03 0.02 0.02 0.01 0.01 0.02 0.02 0.02 0.02 0.02 0.02 0.03 0.04 0.05 0.06 0.06 0.07 0.07 0.07 0.07 0.07 0.06 0.05 0.04 0.03 0.04 0.05 0.06 0.07 0.08 0.09 0.09 0.08
0.02 0.02 0.02 0.02 0.03 0.03 0.03 0.02 0.02 0.02 0.01 0.01 0.01 0.02 0.02 0.02 0.03 0.03 0.04 0.05 0.05 0.07 0.08 0.07 0.06 0.06 0.06 0.05 0.05 0.04 0.04 0.03 0.04 0.06 0.06 0.07 0.08 0.07
0.03 0.02 0.02 0.01 0.01 0.02 0.02 0.02 0.02 0.02 0.02 0.02 0.02 0.02 0.02 0.03 0.03 0.02 0.03 0.03 0.04 0.06 0.07 0.06 0.05 0.05 0.06 0.07 0.07 0.04 0.03 0.02 0.04 0.04 0.05 0.05 0.05 0.05
0.04 0.03 0.02 0.02 0.01 0.01 0.02 0.02 0.02 0.02 0.02 0.02 0.02 0.02 0.03 0.03 0.03 0.03 0.03 0.04 0.04 0.04 0.04 0.04 0.03 0.04 0.06 0.05 0.05 0.03 0.04 0.04 0.04 0.03 0.03 0.03 0.04 0.04
0.04 0.04 0.03 0.02 0.02 0.02 0.02 0.02 0.02 0.02 0.02 0.02 0.02 0.02 0.03 0.04 0.05 0.05 0.05 0.06 0.06 0.05 0.04 0.03 0.03 0.04 0.05 0.05 0.05 0.04 0.06 0.05 0.03 0.03 0.02 0.02 0.03 0.03
MSLP
1007.22 1007.64 1008.09 1008.53 1008.91 1009.20 1009.37 1009.44 1009.43 1009.36 1009.29 1009.26 1009.28 1009.37 1009.51 1009.69 1009.88 1010.04 1010.15 1010.20 1010.16 1010.07 1009.91 1009.72 1009.51 1009.28 1009.05 1008.82 1008.57 1008.32 1008.07 1007.81 1007.56 1007.33 1007.13 1006.99 1006.91 1006.89
1006.91 1007.28 1007.68 1008.07 1008.42 1008.69 1008.88 1008.97 1009.00 1008.99 1008.98 1008.99 1009.05 1009.16 1009.32 1009.49 1009.68 1009.84 1009.96 1010.03 1010.05 1010.03 1009.96 1009.88 1009.78 1009.67 1009.54 1009.41 1009.24 1009.06 1008.83 1008.58 1008.32 1008.05 1007.81 1007.61 1007.46 1007.40
1006.66 1006.98 1007.33 1007.68 1007.99 1008.25 1008.44 1008.56 1008.64 1008.68 1008.71 1008.77 1008.85 1008.98 1009.13 1009.30 1009.47 1009.62 1009.75 1009.83 1009.88 1009.91 1009.93 1009.93 1009.94 1009.93 1009.92 1009.89 1009.81 1009.69 1009.52 1009.30 1009.04 1008.76 1008.49 1008.25 1008.06 1007.95
1006.51 1006.79 1007.10 1007.41 1007.69 1007.94 1008.13 1008.28 1008.38 1008.46 1008.54 1008.63 1008.73 1008.86 1009.01 1009.16 1009.31 1009.44 1009.54 1009.63 1009.70 1009.76 1009.82 1009.90 1009.98 1010.06 1010.14 1010.19 1010.20 1010.16 1010.05 1009.87 1009.64 1009.38 1009.11 1008.85 1008.65 1008.52
1006.47 1006.72 1006.99 1007.27 1007.54 1007.78 1007.98 1008.14 1008.27 1008.38 1008.48 1008.58 1008.70 1008.82 1008.95 1009.08 1009.20 1009.30 1009.38 1009.45 1009.52 1009.59 1009.67 1009.78 1009.91 1010.05 1010.19 1010.31 1010.39 1010.41 1010.37 1010.25 1010.08 1009.86 1009.63 1009.40 1009.21 1009.08
1006.55 1006.76 1007.00 1007.26 1007.51 1007.75 1007.95 1008.13 1008.27 1008.39 1008.51 1008.61 1008.72 1008.83 1008.94 1009.04 1009.13 1009.20 1009.26 1009.31 1009.35 1009.41 1009.50 1009.61 1009.75 1009.91 1010.08 1010.24 1010.37 1010.45 1010.48 1010.44 1010.34 1010.20 1010.03 1009.85 1009.71 1009.61
1006.72 1006.89 1007.10 1007.34 1007.59 1007.82 1008.02 1008.20 1008.34 1008.47 1008.57 1008.67 1008.76 1008.85 1008.94 1009.01 1009.08 1009.12 1009.16 1009.18 1009.21 1009.25 1009.31 1009.40 1009.52 1009.67 1009.84 1010.01 1010.18 1010.31 1010.41 1010.45 1010.44 1010.39 1010.31 1010.22 1010.14 1010.09
1006.94 1007.08 1007.27 1007.49 1007.72 1007.94 1008.14 1008.30 1008.44 1008.55 1008.63 1008.71 1008.78 1008.84 1008.90 1008.96 1009.00 1009.03 1009.05 1009.06 1009.07 1009.08 1009.11 1009.17 1009.25 1009.38 1009.53 1009.70 1009.88 1010.06 1010.21 1010.34 1010.43 1010.48 1010.50 1010.51 1010.50 1010.50
1007.23 1007.32 1007.48 1007.67 1007.88 1008.09 1008.27 1008.41 1008.52 1008.60 1008.65 1008.69 1008.73 1008.76 1008.80 1008.84 1008.87 1008.90 1008.92 1008.92 1008.91 1008.91 1008.91 1008.93 1008.98 1009.07 1009.19 1009.35 1009.54 1009.75 1009.96 1010.16 1010.34 1010.49 1010.61 1010.71 1010.78 1010.84
1007.56 1007.61 1007.73 1007.90 1008.08 1008.26 1008.41 1008.52 1008.59 1008.62 1008.63 1008.62 1008.61 1008.61 1008.63 1008.65 1008.68 1008.71 1008.73 1008.73 1008.73 1008.71 1008.70 1008.69 1008.71 1008.76 1008.86 1009.00 1009.19 1009.42 1009.67 1009.94 1010.19 1010.43 1010.64 1010.81 1010.94 1011.04
1007.99 1007.99 1008.06 1008.19 1008.34 1008.48 1008.59 1008.65 1008.67 1008.65 1008.60 1008.54 1008.48 1008.43 1008.41 1008.42 1008.43 1008.46 1008.49 1008.50 1008.50 1008.49 1008.46 1008.44 1008.44 1008.47 1008.54 1008.67 1008.85 1009.09 1009.37 1009.67 1009.98 1010.28 1010.54 1010.76 1010.94 1011.07
1008.51 1008.46 1008.49 1008.58 1008.68 1008.78 1008.84 1008.85 1008.81 1008.73 1008.62 1008.50 1008.38 1008.29 1008.22 1008.19 1008.19 1008.21 1008.23 1008.25 1008.25 1008.23 1008.20 1008.17 1008.15 1008.16 1008.21 1008.32 1008.49 1008.72 1009.00 1009.32 1009.65 1009.97 1010.27 1010.51 1010.71 1010.85
1009.16 1009.06 1009.05 1009.08 1009.15 1009.19 1009.20 1009.17 1009.07 1008.93 1008.76 1008.57 1008.39 1008.24 1008.12 1008.05 1008.01 1007.99 1007.99 1007.99 1007.98 1007.95 1007.91 1007.87 1007.83 1007.81 1007.84 1007.92 1008.06 1008.27 1008.53 1008.84 1009.16 1009.47 1009.76 1010.00 1010.20 1010.33
1009.91 1009.78 1009.72 1009.72 1009.74 1009.74 1009.71 1009.63 1009.48 1009.29 1009.06 1008.82 1008.58 1008.36 1008.18 1008.04 1007.94 1007.87 1007.83 1007.78 1007.74 1007.68 1007.61 1007.53 1007.46 1007.41 1007.40 1007.43 1007.54 1007.70 1007.91 1008.17 1008.45 1008.73 1008.99 1009.21 1009.38 1009.52
1010.75 1010.59 1010.50 1010.47 1010.45 1010.42 1010.35 1010.24 1010.06 1009.83 1009.56 1009.27 1008.97 1008.68 1008.43 1008.22 1008.04 1007.90 1007.77 1007.66 1007.55 1007.43 1007.31 1007.18 1007.06 1006.95 1006.88 1006.86 1006.89 1006.99 1007.13 1007.32 1007.53 1007.75 1007.96 1008.15 1008.31 1008.44
1011.62 1011.45 1011.35 1011.29 1011.24 1011.20 1011.11 1010.98 1010.78 1010.53 1010.24 1009.91 1009.56 1009.22 1008.89 1008.59 1008.33 1008.09 1007.87 1007.67 1007.47 1007.27 1007.06 1006.86 1006.66 1006.48 1006.33 1006.23 1006.18 1006.18 1006.23 1006.33 1006.46 1006.61 1006.77 1006.92 1007.07 1007.20
1012.48 1012.31 1012.20 1012.13 1012.08 1012.02 1011.93 1011.80 1011.61 1011.36 1011.05 1010.70 1010.32 1009.92 1009.53 1009.15 1008.79 1008.45 1008.12 1007.81 1007.51 1007.21 1006.91 1006.61 1006.32 1006.05 1005.81 1005.61 1005.45 1005.35 1005.31 1005.32 1005.36 1005.45 1005.55 1005.68 1005.82 1005.98
1013.27 1013.11 1013.01 1012.94 1012.89 1012.84 1012.76 1012.64 1012.47 1012.23 1011.93 1011.57 1011.17 1010.74 1010.29 1009.84 1009.39 1008.95 1008.52 1008.10 1007.69 1007.28 1006.88 1006.48 1006.10 1005.73 1005.39 1005.09 1004.83 1004.64 1004.49 1004.41 1004.39 1004.42 1004.49 1004.61 1004.77 1004.96
1013.99 1013.85 1013.75 1013.69 1013.65 1013.61 1013.55 1013.45 1013.30 1013.08 1012.80 1012.45 1012.03 1011.58 1011.08 1010.57 1010.05 1009.52 1009.00 1008.49 1007.98 1007.48 1006.99 1006.50 1006.03 1005.57 1005.14 1004.74 1004.40 1004.11 1003.89 1003.75 1003.67 1003.67 1003.73 1003.86 1004.05 1004.29
1014.62 1014.49 1014.41 1014.35 1014.32 1014.29 1014.25 1014.17 1014.04 1013.85 1013.58 1013.23 1012.82 1012.34 1011.82 1011.26 1010.68 1010.10 1009.51 1008.92 1008.34 1007.77 1007.20 1006.64 1006.10 1005.57 1005.06 1004.60 1004.18 1003.83 1003.56 1003.37 1003.28 1003.27 1003.35 1003.52 1003.76 1004.07
1015.18 1015.06 1014.98 1014.93 1014.90 1014.88 1014.85 1014.78 1014.66 1014.48 1014.22 1013.87 1013.45 1012.96 1012.41 1011.82 1011.21 1010.58 1009.95 1009.32 1008.69 1008.08 1007.46 1006.86 1006.26 1005.68 1005.12 1004.61 1004.16 1003.77 1003.47 1003.28 1003.19 1003.21 1003.34 1003.56 1003.88 1004.26
1015.68 1015.56 1015.48 1015.43 1015.40 1015.37 1015.34 1015.27 1015.14 1014.95 1014.68 1014.32 1013.88 1013.37 1012.80 1012.20 1011.56 1010.91 1010.25 1009.60 1008.95 1008.31 1007.67 1007.04 1006.42 1005.81 1005.23 1004.69 1004.21 1003.82 1003.53 1003.35 1003.30 1003.37 1003.56 1003.87 1004.27 1004.75
1016.13 1016.00 1015.91 1015.85 1015.81 1015.77 1015.72 1015.63 1015.48 1015.26 1014.96 1014.57 1014.11 1013.56 1012.97 1012.34 1011.68 1011.01 1010.35 1009.68 1009.03 1008.38 1007.73 1007.09 1006.45 1005.83 1005.24 1004.69 1004.21 1003.83 1003.56 1003.42 1003.43 1003.57 1003.85 1004.26 1004.76 1005.33
Thickness
5722 5721 5720 5720 5721 5721 5720 5717 5710 5704 5705 5713 5716 5719 5718 5716 5713 5709 5706 5704 5703 5701 5700 5699 5698 5696 5695 5694 5693 5692 5690 5689 5687 5686 5685 5684 5683 5681
5718 5717 5716 5716 5717 5717 5717 5716 5715 5709 5705 5711 5714 5716 5715 5713 5709 5707 5705 5703 5702 5700 5699 5698 5697 5696 5694 5694 5693 5691 5690 5688 5687 5685 5684 5683 5681 5679
5715 5714 5712 5712 5711 5712 5712 5712 5712 5710 5704 5707 5712 5712 5711 5709 5706 5704 5703 5701 5700 5699 5698 5697 5696 5695 5694 5693 5692 5691 5689 5688 5686 5684 5682 5681 5679 5677
5710 5709 5708 5708 5707 5706 5706 5706 5707 5707 5704 5701 5702 5704 5705 5705 5703 5702 5701 5700 5699 5698 5697 5696 5695 5694 5693 5692 5691 5689 5688 5687 5686 5684 5682 5679 5677 5675
5706 5704 5704 5703 5701 5701 5701 5701 5702 5703 5703 5699 5698 5699 5699 5700 5698 5698 5699 5699 5699 5697 5696 5696 5694 5693 5692 5691 5690 5688 5687 5686 5685 5683 5680 5677 5675 5673
5702 5701 5700 5699 5698 5697 5697 5696 5696 5695 5695 5694 5693 5693 5693 5695 5693 5691 5691 5694 5696 5696 5695 5694 5693 5692 5692 5690 5689 5687 5685 5684 5682 5680 5678 5675 5673 5670
5697 5696 5695 5695 5694 5693 5692 5691 5691 5689 5689 5688 5687 5687 5687 5686 5687 5688 5688 5690 5692 5694 5692 5692 5691 5690 5690 5689 5687 5686 5684 5682 5679 5677 5675 5673 5670 5668
5690 5690 5690 5690 5689 5688 5687 5687 5686 5684 5682 5682 5681 5681 5681 5683 5684 5685 5684 5683 5683 5690 5689 5689 5691 5689 5690 5689 5687 5685 5683 5680 5678 5675 5673 5671 5668 5666
5685 5684 5685 5686 5684 5683 5681 5681 5681 5680 5679 5678 5677 5677 5678 5680 5679 5680 5680 5680 5680 5685 5685 5684 5688 5688 5689 5689 5687 5685 5682 5679 5676 5674 5671 5669 5666 5664
5678 5678 5677 5677 5678 5676 5676 5676 5676 5676 5675 5675 5675 5676 5677 5678 5678 5677 5678 5678 5681 5682 5683 5678 5683 5684 5687 5685 5684 5682 5680 5677 5674 5672 5669 5666 5664 5662
5672 5672 5671 5670 5669 5668 5668 5669 5669 5669 5671 5671 5672 5672 5673 5673 5673 5672 5671 5670 5670 5674 5679 5676 5677 5679 5681 5680 5680 5678 5676 5674 5672 5669 5667 5664 5662 5659
5663 5664 5663 5662 5661 5661 5661 5661 5661 5662 5664 5665 5665 5667 5668 5669 5669 5668 5667 5665 5665 5667 5673 5672 5672 5672 5670 5674 5675 5672 5670 5669 5668 5666 5664 5661 5659 5655
5655 5655 5655 5654 5653 5653 5653 5654 5655 5656 5657 5658 5660 5662 5664 5665 5665 5665 5665 5664 5662 5663 5668 5668 5666 5666 5664 5665 5667 5668 5667 5666 5664 5663 5661 5659 5656 5653
5646 5648 5648 5646 5646 5646 5647 5648 5649 5649 5650 5652 5653 5655 5657 5659 5661 5662 5662 5662 5662 5662 5663 5664 5662 5660 5659 5658 5659 5662 5663 5663 5662 5660 5659 5656 5654 5651
5637 5638 5638 5638 5638 5640 5641 5642 5642 5643 5645 5645 5646 5649 5652 5654 5656 5656 5657 5657 5658 5659 5660 5660 5659 5657 5656 5654 5654 5655 5656 5658 5658 5657 5655 5653 5651 5649
5628 5629 5629 5630 5632 5633 5635 5636 5637 5638 5639 5640 5642 5644 5647 5648 5649 5650 5649 5650 5650 5651 5654 5655 5654 5653 5651 5651 5651 5651 5651 5651 5652 5652 5651 5650 5648 5647
5619 5621 5622 5624 5625 5627 5629 5630 5632 5633 5634 5635 5636 5637 5639 5640 5642 5644 5644 5644 5643 5643 5645 5647 5649 5649 5648 5647 5645 5646 5646 5646 5647 5646 5645 5643 5643 5643
5610 5613 5615 5617 5618 5620 5622 5623 5624 5626 5628 5629 5630 5631 5632 5633 5634 5636 5637 5637 5636 5637 5638 5639 5640 5639 5639 5641 5641 5640 5639 5640 5640 5640 5639 5637 5636 5637
5604 5608 5610 5610 5611 5613 5615 5616 5617 5619 5621 5622 5624 5625 5626 5627 5627 5628 5629 5629 5630 5631 5632 5633 5632 5630 5627 5628 5633 5634 5632 5633 5633 5632 5632 5631 5630 5631
5601 5603 5605 5605 5606 5607 5608 5609 5610 5612 5613 5614 5616 5618 5619 5619 5619 5620 5621 5622 5622 5623 5624 5625 5625 5624 5623 5623 5624 5627 5627 5627 5626 5625 5625 5625 5624 5624
5596 5597 5598 5599 5600 5601 5601 5602 5603 5604 5605 5606 5608 5609 5611 5612 5612 5613 5613 5613 5614 5615 5615 5617 5619 5621 5621 5620 5618 5618 5620 5620 5621 5620 5619 5616 5615 5615
5588 5588 5590 5591 5592 5593 5594 5595 5596 5596 5597 5599 5600 5601 5603 5603 5603 5604 5604 5605 5606 5607 5609 5611 5613 5613 5612 5611 5610 5611 5612 5612 5612 5613 5613 5612 5609 5607
5580 5580 5581 5582 5583 5584 5585 5585 5586 5587 5589 5590 5591 5593 5594 5595 5596 5596 5597 5597 5598 5599 5601 5602 5604 5605 5605 5605 5604 5604 5604 5604 5603 5602 5602 5603 5603 5603